Location: Maynard F. Jordan Observatory
(44.9000°N, 68.6700°W)
Time: 04:59:34
(UTC-05:00)

Daily predictions for brighter satellites

Satellite Brightness Start Highest point End
(mag) Time Altitude Azimuth Time Altitude Azimuth Time Altitude Azimuth
Cosmos 1943 Rocket 4.4 03:14:32 17° NE 03:14:32 17° NE 03:18:07 10° E
Lacrosse 5 3.3 03:52:22 33° NE 03:52:22 33° NE 03:55:12 10° NE
Cosmos 44 4.1 04:02:30 52° ESE 04:02:30 52° ESE 04:07:27 10° NE
CENTAUR R/B 3.9 04:09:10 28° N 04:09:10 28° N 04:13:45 10° NNE
Lacrosse 5 rocket 3.9 04:14:12 14° NNE 04:14:12 14° NNE 04:15:29 10° NE
Meteor 1-19 Rocket 4.3 04:17:58 41° N 04:20:06 76° ENE 04:25:51 10° SSE
Nadezhda 3 Rocket 4.0 04:19:20 13° N 04:25:05 81° E 04:31:28 10° S
ATLAS 5 CENTAUR R/B 4.4 04:25:17 12° N 04:26:47 14° NNE 04:29:40 10° NE
CRYOSAT 2 4.3 04:22:25 10° S 04:27:18 81° E 04:27:52 69° NNE
Cosmos 2369 Rocket 2.0 04:31:57 71° W 04:32:13 72° WSW 04:37:52 10° SSE
Meteor 1-11 Rocket 3.7 04:31:49 10° S 04:37:38 90° ESE 04:43:21 10° N
SKYMED 2 3.7 04:34:36 10° SSE 04:38:56 71° ENE 04:39:57 50° N
Cosmos 1603 4.5 04:42:23 35° NNW 04:42:23 35° NNW 04:46:14 10° NNE
Meteor 1-23 Rocket 4.4 04:36:59 14° N 04:41:49 71° ENE 04:47:21 10° SSE
Meteor 2-4 Rocket 3.7 04:38:04 21° N 04:41:59 83° E 04:47:42 10° SSE
Lacrosse 4 Rocket 2.2 04:43:15 39° NNE 04:44:11 47° NE 04:48:06 10° SE
Meteor 1-13 Rocket 4.3 04:43:13 50° NW 04:44:21 59° W 04:50:09 10° S
Cosmos 1025 Rocket 3.0 04:43:54 47° N 04:45:05 79° E 04:49:26 10° SSE
ADEOS II 4.1 04:44:55 10° N 04:45:35 13° N 04:45:35 13° N
Cosmos 1943 Rocket 2.0 04:56:05 29° NNW 04:59:05 89° E 05:04:35 10° SSE
Cosmos 839 Rocket 4.1 04:56:09 23° NNW 05:00:26 79° NE 05:06:34 10° SE
Cosmos 1943 3.1 04:57:04 23° SW 05:00:35 61° WNW 05:06:12 10° NNE
Cosmos 2341 Rocket 3.9 04:54:20 10° SSW 05:00:37 79° W 05:06:54 10° N
SL-24 DEB 4.3 04:56:12 10° S 05:00:59 80° E 05:05:48 10° N
Cosmos 1452 Rocket 3.6 05:00:57 43° WNW 05:02:05 51° WSW 05:07:10 10° S
Cosmos 44 Rocket 4.0 05:02:37 36° NW 05:02:37 36° NW 05:07:04 10° NNE
Abrixas rocket 2.7 05:05:41 49° N 05:05:41 49° N 05:08:42 10° ENE
CZ-4C R/B 4.3 05:04:49 12° NNW 05:09:37 25° NNE 05:15:31 10° E
CZ-3 R/B 3.8 05:06:14 10° SW 05:13:36 18° SSW 05:17:21 10° SSE
CSL-04 DEB 4.5 05:09:52 10° NNE 05:14:00 82° ESE 05:18:12 10° SSW
SL-24 R/B 4.4 05:09:37 10° NNE 05:14:52 81° ESE 05:19:21 10° S
Helios 1B rocket 4.3 05:11:41 10° SE 05:15:19 30° ENE 05:18:58 10° N
Cosmos 1656 Rocket 4.2 05:10:19 12° NNW 05:15:29 60° ENE 05:21:06 10° SE
Cosmos 1544 Rocket 3.6 05:14:36 10° S 05:18:57 78° E 05:23:23 10° N
Tiangong 2 3.1 05:20:01 18° SSW 05:20:05 18° SSW 05:22:16 10° SSE
USA 229 DEB 3.6 05:13:21 10° SW 05:20:15 78° NW 05:27:16 10° NE
USA 229 3.6 05:13:28 10° SW 05:20:21 78° NW 05:27:22 10° NE
Cosmos 2154 Rocket 4.3 05:15:59 10° SW 05:21:49 42° WNW 05:27:42 10° N
COSMO-SKYMED 1 3.1 05:23:06 10° SSW 05:27:05 35° W 05:28:34 27° WNW
Cosmos 1461 3.4 05:24:19 10° SSW 05:28:35 63° ESE 05:32:41 10° NE
CZ-2C R/B 3.9 05:23:50 10° NNE 05:28:41 41° E 05:33:23 10° SSE
NOAA 6 4.4 05:25:33 10° N 05:30:17 38° WNW 05:35:00 10° SW
Cosmos 1536 3.9 05:27:15 10° SW 05:31:50 25° NW 05:34:20 10° NNW
Lacrosse 5 2.8 05:31:36 24° WNW 05:33:29 31° NNW 05:38:04 10° NE
Okean 2 3.6 05:31:21 16° NNW 05:34:22 46° W 05:38:20 10° SSW
USA 129 1.5 05:32:38 10° SSE 05:34:49 83° W 05:35:01 67° NNW
Cosmos 1500 4.0 05:36:15 10° S 05:39:54 52° E 05:43:36 10° NNE
Cosmos 2084 3.3 05:39:22 14° WSW 05:42:33 47° NW 05:46:14 10° NNE
Cosmos 1892 Rocket 3.9 05:39:11 10° NNW 05:43:26 44° W 05:47:40 10° SSW
Cosmos 44 4.3 05:41:02 19° W 05:43:54 30° NW 05:48:24 10° NNE
USA 215 3.3 05:37:44 10° NE 05:44:18 90° N 05:50:50 10° SW
SL-8 Rocket 4.0 05:38:51 10° SSW 05:45:00 60° WNW 05:51:09 10° N
CZ-4 R/B 1.6 05:41:10 10° NNE 05:45:06 70° ESE 05:48:58 10° S
Meteor 1-12 Rocket 4.4 05:39:30 10° S 05:45:07 78° E 05:50:49 10° NNE
SMAP 3.9 05:41:48 10° NNE 05:46:23 55° E 05:50:56 10° S
Meteor 1-28 Rocket 3.9 05:43:26 10° SSW 05:46:56 34° W 05:49:43 14° NW
Cosmos 1269 Rocket 4.1 05:42:57 10° SW 05:48:07 54° WNW 05:53:20 10° NNE
Cosmos 1066 Rocket 4.5 05:42:56 10° N 05:48:21 69° ENE 05:53:51 10° SSE
Cosmos 1340 3.5 05:47:12 18° NW 05:49:09 29° W 05:52:28 10° SSW
CSL-04 Rocket 3.7 05:45:33 10° N 05:51:01 60° WNW 05:56:23 10° SSW
SWAS 4.4 05:48:01 13° NNW 05:51:45 67° WSW 05:55:58 10° SSE
Lacrosse 5 rocket 3.0 05:49:56 12° NNW 05:53:14 28° NNE 05:57:06 10° E
Cosmos 1626 Rocket 3.6 05:49:32 10° N 05:53:59 87° ENE 05:58:22 10° S
IRS-1A Rocket 4.3 05:49:03 10° NNE 05:54:49 81° WNW 06:00:39 10° SSW
Cosmos 1959 Rocket 4.5 05:51:07 10° SSW 05:57:07 57° WNW 06:03:08 10° N
Cosmos 405 Rocket 3.3 05:55:28 10° N 05:59:13 56° ENE 06:02:52 10° SSE
Cosmos 2366 rocket 4.0 05:53:00 10° SSW 05:59:15 64° WNW 06:05:35 10° N
Ariane Rocket 3.4 05:55:39 10° N 06:00:18 38° WNW 06:04:56 10° SW
CENTAUR R/B 4.4 05:56:21 11° NW 06:00:38 18° N 06:05:33 10° NE
CSL-04 Debris 4.3 05:56:26 10° N 06:01:47 56° WNW 06:07:08 10° SSW
Cosmos 2251 Rocket 4.0 05:59:28 10° S 06:04:48 70° ESE 06:10:10 10° NNE
Cosmos 1331 Rocket 4.0 05:59:54 10° NNW 06:05:05 88° WSW 06:10:15 10° SSE
Cosmos 1455 Rocket 3.4 06:03:40 10° SSW 06:07:45 40° WNW 06:11:53 10° N
AQUARIUS 4.2 06:03:17 10° NNE 06:07:50 89° W 06:12:19 10° SSW
Cosmos 1048 Rocket 4.4 06:03:34 10° SW 06:08:24 40° WNW 06:13:18 10° N
SJ-12 3.9 06:07:23 10° N 06:11:31 66° WNW 06:15:38 10° SSW
Cosmos 2218 Rocket 4.3 06:05:50 10° SSW 06:11:57 46° WNW 06:18:04 10° N
CORIOLIS 4.4 06:07:08 10° NNE 06:12:31 78° ESE 06:17:52 10° S
ATLAS 5 CENTAUR R/B 3.6 06:08:00 10° NNW 06:13:15 34° NE 06:18:55 10° ESE
Cosmos 1975 3.2 06:14:46 10° SSW 06:18:40 43° WNW 06:22:37 10° N
COSMOS 2487 4.3 06:16:46 10° S 06:20:05 37° ESE 06:23:26 10° NE
Meteor 1-29 3.0 06:17:42 10° S 06:21:02 60° WSW 06:24:24 10° NNW
Lacrosse 4 Rocket 3.0 06:19:46 10° WNW 06:22:30 17° WSW 06:25:12 10° SSW
SPOT 3 Rocket 3.5 06:17:21 10° NNE 06:22:31 77° WNW 06:27:38 10° SSW
COSMOS 2406 3.3 06:20:06 10° SW 06:25:40 58° WNW 06:31:18 10° NNE
ATLAS 3B R/B 3.6 06:21:08 10° NNW 06:27:44 42° NE 06:33:58 10° ESE
Cosmos 1821 Rocket 4.3 06:26:22 10° S 06:32:36 77° E 06:38:46 10° N
